SL-19 R/B, 36589

Orbit data source: Space-Track

SL-19 R/B, 36589 is space debris in SSO originally from a launch on Wed, 02 Jun 2010 UTC launched from the Plesetsk Missile And Space Complex (PKMTR). Debris objects in space refer to the collection of defunct objects orbiting the Earth. Examples of debris include non-operational satellites, rocket bodies, and fragments generated from explosions, collisions, or faulty payload assembly.

Loading next visibility...
Identifier
36589, 2010-023B
Orbit
SSO
Last TLE update
16 hours ago
Origin
Manufacturer
Khrunichev
Mission
Spacecraft
Bus & Motor
BRIZ, S5.92
Mass
2,370 kg wet, 2,370 kg dry
Launch date (UTC)
2010-06-02 (15 years ago)
Launch vehicle
Unknown
Launch site
Plesetsk Missile And Space Complex (PKMTR)
Object type
Payload
Rocket body
Debris
Shape & HBR
Hex Cyl + 1 Rod, 4.1 m
Radar Cross Section
10.190 m², Large (>1 m²)

Expand to show TLE details & history

TLE from 16 hours ago
0 SL-19 R/B
1 36589U 10023B   25187.45598539 -.00000031  00000-0  20782-4 0  9996
2 36589 100.4629 119.5882 0225861  76.6825  27.8511 13.58520896748692
Epoch: 2025-07-06T10:56Z
TLE epoch observation values (Epoch: 2025-07-06T10:56:37.137Z)
Latitude
71.22175°
Longitude
-116.54338°
Altitude
905.926 km
Speed
7.479 km/s
True Right ascension
22h 09m 09s
True Declination
71° 07' 08"
Sunlit
Object was in daylight at epoch
Visualization orbit readout
Latitude
40.79369°
Longitude
22.32542°
Altitude
905.977 km
Speed
7.473 km/s
Apparent Right ascension
05h 09m 16s
Apparent Declination
4° 32' 05"
Sunlit
Object is in daylight
Visualization observer readout
Local Sidereal Time
14:33:44
Azimuth
311.754° NW
Elevation
-32.988°
Doppler factor
1
Orbital elements
Apogee altitude
1,205.912 km
Perigee altitude
870.89 km
Semi-major axis
7,416.538 km
Eccentricity
0.02259
Inclination
100.4629°
RAAN
119.5882°
Arg. of periapsis
76.6825°
True anomaly
Unknown
Mean anomaly
27.8511°
Eccentric anomaly
Unknown
Mean motion
3.39814 °/min
Orbital period
105.94 mins
BSTAR
0.000020782
Loading maneuver chart data...
Loading SW <> Apogee altitude chart data...
Loading historical data...
Loading historical data...
Loading historical data...
Loading historical data...
Loading historical data...
Loading historical data...
Loading historical data...
Other satellites on launch #23 in the year 2010 (2010-06-02 UTC)

SL-19 R/B Visibility forecast

Observer location: undefined°, undefined°

Span
Click to sort rows by Start time (UTC) header in descending order
Start Az.
Max El. time (UTC)
Max El. Az.
Max El.
End time (UTC)
End Az.
11 mins2025-07-07 08:13:56.181Z22.838° NE2025-07-07 08:18:56.181Z98.406° ESE42.626°2025-07-07 08:24:56.181Z186.558° SSW
6 mins2025-07-07 10:00:56.181Z325.424° NNW2025-07-07 10:02:56.181Z300.526° NW18.168°2025-07-07 10:06:56.181Z258.182° W
8 mins2025-07-07 18:24:56.181Z113.298° SE2025-07-07 18:27:56.181Z70.546° E26.957°2025-07-07 18:32:56.181Z5.434° NNE
8 mins2025-07-07 20:08:56.181Z204.23° SW2025-07-07 20:12:56.181Z268.166° W29.992°2025-07-07 20:16:56.181Z321.911° NNW
|